Weather History for Newport Airport, OR

Change the Weather History Date:

Monday, February 13, 2012

  Actual Average Record
Temperature  
Mean Temperature 42 °F -  
Max Temperature 46 °F 50 °F 55 °F (1998)
Min Temperature 39 °F 39 °F 32 °F (2002)
Degree Days  
Heating Degree Days 22    
Moisture  
Dew Point 40 °F    
Average Humidity 89    
Maximum Humidity 100    
Minimum Humidity 76    
Precipitation  
Precipitation 0.04 in - - ()
Sea Level Pressure  
Sea Level Pressure 30.05 in    
Wind  
Wind Speed 4 mph (North)    
Max Wind Speed 13 mph    
Max Gust Speed 17 mph    
Visibility 9 miles    
Events Rain    
Averages and records for this station are not official NWS values.
T = Trace of Precipitation, MM = Missing Value Source: NWS Daily Summary

Daily Weather History Graph

Daily Weather History Graph

Search for Another Location

Airport:

Trip Planner

Search our weather history database for the weather conditions in past years. The results will help you decide how hot, cold, wet, or windy it might be!

Date:

Astronomy

Feb. 13, 2012 Rise Set
Actual Time 7:19 AM PST 5:41 PM PST
Civil Twilight 6:49 AM PST 6:11 PM PST
Nautical Twilight 6:15 AM PST 6:46 PM PST
Astronomical Twilight 5:41 AM PST 7:19 PM PST
Moon 12:03 AM PST (2/13) 10:03 AM PST (2/13)
Length of Visible Light 11h 21m
Length of Day
10h 21m
Waning Gibbous, 60% of the Moon is Illuminated
Feb 13
Waning Gibbous
Feb 14
Last Quarter
Feb 21
New
Feb 29
First Quarter
Mar 8
Full

Hourly Weather History & Observations

Time (PST) Temp. Windchill Dew Point Humidity Pressure Visibility Wind Dir Wind Speed Gust Speed Precip Events Conditions
12:15 AM 39.2 °F 35.0 °F 37.4 °F 93% 29.96 in 10.0 mi East 5.8 mph - N/A   Light Drizzle
12:35 AM 39.2 °F 35.0 °F 37.4 °F 93% 29.96 in 10.0 mi ENE 5.8 mph - N/A   Light Drizzle
12:55 AM 39.2 °F 35.9 °F 37.4 °F 93% 29.96 in 10.0 mi East 4.6 mph - N/A   Overcast
1:15 AM 39.2 °F 37.0 °F 37.4 °F 93% 29.97 in 10.0 mi East 3.5 mph - N/A   Overcast
1:35 AM 39.2 °F - 37.4 °F 93% 29.98 in 10.0 mi Calm Calm - N/A Rain Light Rain
1:55 AM 39.2 °F - 37.4 °F 93% 29.98 in 10.0 mi Calm Calm - N/A   Drizzle
2:15 AM 39.2 °F - 37.4 °F 93% 29.99 in 10.0 mi Calm Calm - N/A   Drizzle
2:35 AM 39.2 °F - 37.4 °F 93% 29.99 in 10.0 mi Calm Calm - 0.01 in   Drizzle
2:55 AM 39.2 °F - 37.4 °F 93% 30.00 in 10.0 mi Calm Calm - 0.01 in   Drizzle
3:15 AM 39.2 °F - 37.4 °F 93% 30.00 in 7.0 mi Calm Calm - N/A   Drizzle
3:35 AM 39.2 °F - 39.2 °F 100% 30.00 in 7.0 mi Calm Calm - N/A   Light Drizzle
3:55 AM 39.2 °F - 37.4 °F 93% 30.00 in 10.0 mi Calm Calm - N/A   Light Drizzle
4:15 AM 39.2 °F - 37.4 °F 93% 30.01 in 10.0 mi Calm Calm - N/A   Overcast
4:35 AM 39.2 °F - 37.4 °F 93% 30.01 in 10.0 mi Calm Calm - N/A   Drizzle
4:55 AM 39.2 °F - 37.4 °F 93% 30.01 in 4.0 mi Calm Calm - 0.01 in Rain Rain
5:15 AM 39.2 °F - 39.2 °F 100% 30.01 in 7.0 mi Calm Calm - N/A   Drizzle
5:35 AM 39.2 °F - 39.2 °F 100% 30.01 in 5.0 mi Calm Calm - N/A   Drizzle
5:55 AM 39.2 °F - 39.2 °F 100% 30.00 in 7.0 mi Calm Calm - N/A   Light Drizzle
6:15 AM 41.0 °F - 39.2 °F 93% 30.00 in 5.0 mi Calm Calm - 0.01 in Rain Rain
6:35 AM 41.0 °F - 39.2 °F 93% 30.00 in 5.0 mi Calm Calm - 0.01 in Rain Light Rain
6:55 AM 41.0 °F - 39.2 °F 93% 30.00 in 10.0 mi Calm Calm - 0.02 in   Drizzle
7:15 AM 39.2 °F - 39.2 °F 100% 30.00 in 10.0 mi Calm Calm - N/A   Overcast
7:35 AM 41.0 °F - 39.2 °F 93% 30.00 in 10.0 mi Calm Calm - N/A   Overcast
7:55 AM 41.0 °F - 39.2 °F 93% 30.01 in 10.0 mi Calm Calm - N/A   Overcast
8:15 AM 41.0 °F - 41.0 °F 100% 30.01 in 10.0 mi Calm Calm - N/A   Overcast
8:35 AM 41.0 °F - 41.0 °F 100% 30.02 in 10.0 mi Calm Calm - N/A   Overcast
8:55 AM 42.8 °F - 41.0 °F 93% 30.02 in 10.0 mi Calm Calm - N/A   Overcast
9:15 AM 42.8 °F - 42.8 °F 100% 30.03 in 10.0 mi Calm Calm - N/A   Overcast
9:35 AM 42.8 °F - 42.8 °F 100% 30.04 in 5.0 mi Calm Calm - N/A   Light Drizzle
9:55 AM 42.8 °F 39.3 °F 42.8 °F 100% 30.04 in 10.0 mi NE 5.8 mph - N/A   Overcast
10:15 AM 42.8 °F 41.1 °F 42.8 °F 100% 30.05 in 10.0 mi NE 3.5 mph - N/A   Overcast
10:35 AM 44.6 °F 43.1 °F 42.8 °F 93% 30.06 in 10.0 mi NE 3.5 mph - N/A   Overcast
10:55 AM 44.6 °F 41.4 °F 42.8 °F 93% 30.06 in 10.0 mi ENE 5.8 mph - N/A   Overcast
11:15 AM 44.6 °F 43.1 °F 41.0 °F 87% 30.07 in 10.0 mi NE 3.5 mph - N/A   Overcast
11:35 AM 44.6 °F 39.7 °F 41.0 °F 87% 30.07 in 7.0 mi NE 9.2 mph - N/A   Overcast
11:55 AM 46.4 °F 44.3 °F 41.0 °F 81% 30.07 in 10.0 mi NE 4.6 mph - N/A   Scattered Clouds
12:15 PM 46.4 °F 42.4 °F 41.0 °F 81% 30.07 in 10.0 mi North 8.1 mph - N/A   Mostly Cloudy
12:35 PM 44.6 °F 39.7 °F 41.0 °F 87% 30.07 in 10.0 mi NNW 9.2 mph - N/A   Mostly Cloudy
12:55 PM 46.4 °F 41.1 °F 41.0 °F 81% 30.07 in 10.0 mi North 11.5 mph - N/A   Mostly Cloudy
1:15 PM 46.4 °F 40.7 °F 41.0 °F 81% 30.07 in 7.0 mi NNW 12.7 mph - N/A   Overcast
1:35 PM 46.4 °F 41.5 °F 41.0 °F 81% 30.07 in 10.0 mi North 10.4 mph - N/A   Overcast
1:55 PM 46.4 °F 41.9 °F 41.0 °F 81% 30.08 in 10.0 mi North 9.2 mph - N/A   Overcast
2:15 PM 46.4 °F 41.5 °F 41.0 °F 81% 30.08 in 7.0 mi NW 10.4 mph - N/A   Overcast
2:35 PM 46.4 °F 41.1 °F 41.0 °F 81% 30.09 in 7.0 mi NW 11.5 mph - N/A   Scattered Clouds
2:55 PM 46.4 °F 41.5 °F 41.0 °F 81% 30.10 in 10.0 mi NNW 10.4 mph - N/A   Scattered Clouds
3:15 PM 46.4 °F 41.1 °F 41.0 °F 81% 30.11 in 7.0 mi NNW 11.5 mph 16.1 mph N/A   Scattered Clouds
3:35 PM 46.4 °F 41.5 °F 41.0 °F 81% 30.11 in 7.0 mi NNW 10.4 mph - N/A   Clear
3:55 PM 46.4 °F 41.5 °F 41.0 °F 81% 30.11 in 7.0 mi NNW 10.4 mph 17.3 mph N/A   Scattered Clouds
4:15 PM 46.4 °F 40.7 °F 39.2 °F 76% 30.11 in 10.0 mi NNW 12.7 mph - N/A   Scattered Clouds
4:35 PM 46.4 °F 41.1 °F 39.2 °F 76% 30.11 in 10.0 mi NNW 11.5 mph - N/A   Clear
4:55 PM 44.6 °F 40.7 °F 39.2 °F 81% 30.12 in 7.0 mi North 6.9 mph - N/A   Scattered Clouds
5:15 PM 44.6 °F 40.2 °F 39.2 °F 81% 30.13 in 10.0 mi NNW 8.1 mph - N/A   Mostly Cloudy
5:35 PM 42.8 °F 38.6 °F 37.4 °F 81% 30.13 in 10.0 mi North 6.9 mph - N/A   Scattered Clouds
5:55 PM 42.8 °F 39.3 °F 37.4 °F 81% 30.13 in 7.0 mi North 5.8 mph - N/A   Mostly Cloudy
6:15 PM 42.8 °F 41.1 °F 37.4 °F 81% 30.14 in 10.0 mi NNW 3.5 mph - N/A   Mostly Cloudy
6:35 PM 42.8 °F 38.6 °F 39.2 °F 87% 30.15 in 10.0 mi NW 6.9 mph - N/A   Overcast
6:55 PM 44.6 °F - 39.2 °F 81% 30.15 in 7.0 mi Calm Calm - N/A   Overcast
7:15 PM 42.8 °F - 37.4 °F 81% 30.15 in 10.0 mi Calm Calm - N/A   Overcast
7:35 PM 42.8 °F 41.1 °F 39.2 °F 87% 30.14 in 10.0 mi NE 3.5 mph - N/A   Overcast
7:55 PM 42.8 °F 39.3 °F 41.0 °F 93% 30.14 in 10.0 mi NNW 5.8 mph - N/A   Overcast
8:15 PM 42.8 °F 41.1 °F 41.0 °F 93% 30.14 in 7.0 mi North 3.5 mph - N/A   Overcast
8:35 PM 42.8 °F 39.3 °F 39.2 °F 87% 30.13 in 10.0 mi ENE 5.8 mph - N/A   Overcast
8:55 PM 41.0 °F 39.0 °F 39.2 °F 93% 30.12 in 10.0 mi ESE 3.5 mph - N/A   Mostly Cloudy
9:15 PM 41.0 °F 39.0 °F 39.2 °F 93% 30.12 in 10.0 mi SSE 3.5 mph - N/A   Overcast
9:55 PM 37.4 °F - 37.4 °F 100% 30.13 in 10.0 mi Calm Calm - N/A   Clear
10:15 PM 37.4 °F 33.8 °F 37.4 °F 100% 30.13 in 10.0 mi SSE 4.6 mph - N/A   Mostly Cloudy
10:35 PM 37.4 °F 34.9 °F 37.4 °F 100% 30.11 in 7.0 mi SE 3.5 mph - N/A   Overcast
10:55 PM 37.4 °F 34.9 °F 37.4 °F 100% 30.10 in 10.0 mi SSE 3.5 mph - N/A   Scattered Clouds
11:15 PM 37.4 °F - 35.6 °F 93% 30.11 in 10.0 mi Calm Calm - N/A   Clear
11:35 PM 37.4 °F - 35.6 °F 93% 30.12 in 10.0 mi Calm Calm - N/A   Mostly Cloudy
11:55 PM 37.4 °F 34.9 °F 37.4 °F 100% 30.12 in 10.0 mi SE 3.5 mph - N/A   Overcast